YAOGAN 29 DEB, 42673

Orbit data source: Space-Track

YAOGAN 29 DEB, 42673 is space debris in SSO originally from a launch on Thu, 26 Nov 2015 UTC launched from the Taiyaun Space Center, China (TSC). Debris objects in space refer to the collection of defunct objects orbiting the Earth. Examples of debris include non-operational satellites, rocket bodies, and fragments generated from explosions, collisions, or faulty payload assembly.

Loading next visibility...
Identifier
42673, 2015-069F
Orbit
SSO
Country
Flag of CNCN / PRC
Related business
Manufacturer
Unknown
Mission
Spacecraft
Bus & Motor
Unknown
Mass
Unknown
Launch date (UTC)
2015-11-26 (10 years ago)
Launch vehicle
Unknown
Launch site
Taiyaun Space Center, China (TSC)
Object type
Payload
Rocket body
Debris
Shape & HBR
Unknown shape, 0.1 m
Radar Cross Section
Small (<0.1 m²)

Expand to show TLE details & history
Last TLE update: 18 hours ago

TLE from 18 hours ago
0 YAOGAN 29 DEB
1 42673U 15069F   25308.90199193  .00001478  00000-0  15713-3 0  9992
2 42673  97.9043 339.8072 0004296  48.2358 311.9226 14.90526235538567
Epoch: 2025-11-04T21:38Z
TLE epoch observation values (Epoch: 2025-11-04T21:38:52.102Z)
Latitude
-0.00007°
Longitude
-29.29224°
Altitude
597.328 km
Speed
7.562 km/s
True Right ascension
22h 39m 13s
True Declination
0° 00' 00"
Sunlit
Object was in full shadow at epoch
Visualization orbit readout
Latitude
Unknown
Longitude
Unknown
Altitude
Unknown
Speed
Unknown
Apparent Right ascension
Unknown
Apparent Declination
Unknown
Sunlit
N/A
Visualization observer readout
Local Sidereal Time
11:30:21
Azimuth
Unknown
Elevation
Unknown
Doppler factor
Unknown
Orbital elements
Apogee altitude
596.316 km
Perigee altitude
590.326 km
Semi-major axis
6,971.458 km
Eccentricity
0.00043
Inclination
97.9043°
RAAN
339.8072°
Arg. of periapsis
48.2358°
True anomaly
311.88596°
Mean anomaly
311.9226°
Eccentric anomaly
311.90428°
Mean motion
3.7287 °/min
Orbital period
96.55 mins
BSTAR
0.00015713
Loading maneuver chart data...
Computing Atmospheric mass density...
Loading historical data...
Loading historical data...
Loading historical data...
Loading historical data...
Loading historical data...
Loading historical data...
Loading historical data...
Other satellites on launch #69 in the year 2015 (2015-11-26 UTC)

Documentation

Showing up to 5 results
|